User: anonymous   Login
Location: Saint-Usage
(47.1052°N, 5.2587°E)
Time: 23:51:12
(UTC+01:00)
Language:

NOAA 19 - Orbit

View from above orbital plane
View from above orbital plane
View from above satellite
View from above satellite

Ground track
Ground track

The orbit data is extracted from the following two-line orbital elements,

1 33591U 09005A   21335.58181243  .00000090  00000-0  73930-4 0  9996
2 33591  99.1712   0.3361 0014293  27.3067 332.8853 14.12511856660513
Epoch (UTC): 01 December 2021 13:57:48
Eccentricity: 0.0014293
inclination: 99.1712°
perigee height: 840 km
apogee height: 861 km
right ascension of ascending node: 0.3361°
argument of perigee: 27.3067°
revolutions per day: 14.12511856
mean anomaly at epoch: 332.8853°
orbit number at epoch: 66051

The dashed part of the orbit path shows where the satellite is in the earth's shadow,  

DLR